This is the latest recevied weather packets stored in our database for station/object KC9VAF. If no packets are shown the sender has not sent any weather packets the latest 1 day(s).
| Time | Temp. | Humidity | Pressure | Rain* | Wind** | Luminosity | Snow |
|---|---|---|---|---|---|---|---|
| 1777993085 | 11.67° C | 42% | 1008.8 hPa | 0 mm | 1.34 m/s, 187° | 657 W/m² | - |
| 1777992784 | 11.67° C | 42% | 1008.9 hPa | 0 mm | 2.24 m/s, 246° | 591 W/m² | - |
| 1777992481 | 11.67° C | 44% | 1008.8 hPa | 0 mm | 2.24 m/s, 308° | 603 W/m² | - |
| 1777992180 | 11.11° C | 44% | 1008.9 hPa | 0 mm | 1.79 m/s, 313° | 576 W/m² | - |
| 1777991876 | 11.11° C | 45% | 1009.1 hPa | 0 mm | 1.34 m/s, 229° | 541 W/m² | - |
| 1777991574 | 11.11° C | 43% | 1009.3 hPa | 0 mm | 2.24 m/s, 272° | 528 W/m² | - |
| 1777991270 | 11.11° C | 44% | 1009.3 hPa | 0 mm | 1.79 m/s, 174° | 547 W/m² | - |
| 1777990968 | 11.11° C | 44% | 1009.2 hPa | 0 mm | 2.24 m/s, 295° | 463 W/m² | - |
| 1777990665 | 11.11° C | 45% | 1009.3 hPa | 0 mm | 1.34 m/s, 202° | 496 W/m² | - |
| 1777990363 | 11.11° C | 44% | 1009.3 hPa | 0 mm | 2.24 m/s, 201° | 383 W/m² | - |
| 1777990058 | 11.11° C | 44% | 1009.2 hPa | 0 mm | 1.79 m/s, 306° | 255 W/m² | - |
| 1777989755 | 11.11° C | 45% | 1009.5 hPa | 0 mm | 1.34 m/s, 187° | 274 W/m² | - |
| 1777989452 | 11.11° C | 44% | 1009.4 hPa | 0 mm | 0.89 m/s, 227° | 174 W/m² | - |
| 1777989148 | 10.56° C | 44% | 1009.6 hPa | 0 mm | 1.79 m/s, 63° | 203 W/m² | - |
| 1777988844 | 10.56° C | 43% | 1009.7 hPa | 0 mm | 1.34 m/s, 159° | 184 W/m² | - |
| 1777988542 | 10.56° C | 43% | 1009.6 hPa | 0 mm | 2.24 m/s, 287° | 166 W/m² | - |
| 1777988238 | 10.56° C | 44% | 1009.5 hPa | 0 mm | 1.34 m/s, 295° | 186 W/m² | - |
| 1777987935 | 10.56° C | 44% | 1009.2 hPa | 0 mm | 2.24 m/s, 168° | 157 W/m² | - |
| 1777987630 | 10° C | 44% | 1009.4 hPa | 0 mm | 1.79 m/s, 289° | 157 W/m² | - |
| 1777987329 | 10° C | 44% | 1009.4 hPa | 0 mm | 1.79 m/s, 326° | 183 W/m² | - |
| 1777987026 | 10° C | 43% | 1009.2 hPa | 0 mm | 1.79 m/s, 207° | 201 W/m² | - |
| 1777986723 | 10° C | 45% | 1009.2 hPa | 0 mm | 0.89 m/s, 301° | 103 W/m² | - |
| 1777986421 | 9.44° C | 46% | 1009.1 hPa | 0 mm | 1.34 m/s, 327° | 161 W/m² | - |
| 1777986119 | 8.89° C | 47% | 1009.4 hPa | 0 mm | 0.45 m/s, 353° | 130 W/m² | - |
| 1777985815 | 9.44° C | 46% | 1009.2 hPa | 0 mm | 0.89 m/s, 300° | 77 W/m² | - |
* Rain latest hour (hover to see other rain measurements)
** Current wind speed in m/s (hover to see current wind gust speed)